sat.trackr.live / text

‹ back to catalog

STARLINK-11452 [DTC]

NORAD 62511 · 2025-004A

PAYLOAD ACTIVE UNKNOWN

§ Identity

Operator
Country
US
Launch date
2025-01-08
Launch site
AFETR
Launch vehicle
Mass (kg)
RCS (m²)

Purposes: comms

External: N2YO · Heavens-Above · Gunter

§ Orbital elements

Epoch: 2026-05-24T21:25:48.795168Z

Period
91.67 min
Inclination
43.0018°
Eccentricity
0.0002655
Mean motion
15.70881607 rev/d
Perigee alt
354.6 km
Apogee alt
358.2 km
Semi-major
6,734.5 km
B*
1.2443e-3
RAAN
331.3740°
Arg perigee
258.9316°
Mean anomaly
101.1253°
Rev number
8,011

§ Raw data

STARLINK-11452 [DTC]1 62511U 25004A   26144.89292587  .00162671  00000+0  12443-2 0  99912 62511  43.0018 331.3740 0002655 258.9316 101.1253 15.70881607 80112

JSON: /api/v1/satellites/62511 · /tle

For live sub-satellite position, see the globe view (requires WebGL).

§ Visibility from observer

Set your observer location to see the next 7 days of passes ≥ 10°. The values pass through the URL so the page stays shareable.

No JS? Fill the form by hand. The geolocation button needs JavaScript.